FW2602 Weather Reports


Display with metric or nautical units.
time (UTC)temp
F
wind
direction
speed
MPH
gust
MPH
rain 1hr
in
rain 24hr
in
rain mn
in
humidity
%
barometer
mb
20260505051024 61 166 3.0 10.0 0.00 0.00 0.00 52 1006.0
20260505050520 61 269 3.0 10.0 0.00 0.00 0.00 52 1006.0
20260505041521 60 137 3.0 8.0 0.00 0.00 0.00 51 1006.0
20260505041020 61 326 1.0 11.0 0.00 0.00 0.00 51 1006.0
20260505040515 61 340 3.0 8.0 0.00 0.00 0.00 51 1006.0
20260505040014 61 298 3.0 8.0 0.00 0.00 0.00 50 1005.9
20260505035517 61 49 3.0 11.0 0.00 0.00 0.00 50 1005.9
20260505035012 61 291 4.0 11.0 0.00 0.00 0.00 50 1005.9
20260505034512 61 111 3.0 11.0 0.00 0.00 0.00 50 1005.9
20260505034015 61 308 4.0 11.0 0.00 0.00 0.00 49 1005.9
20260505033513 61 42 3.0 12.0 0.00 0.00 0.00 49 1006.0
20260505033013 61 304 5.0 12.0 0.00 0.00 0.00 49 1006.1
20260505032512 61 297 4.0 12.0 0.00 0.00 0.00 49 1006.1
20260505032014 61 290 5.0 12.0 0.00 0.00 0.00 48 1006.2
20260505031512 61 353 4.0 11.0 0.00 0.00 0.00 48 1006.2
20260505031018 61 309 4.0 12.0 0.00 0.00 0.00 48 1006.1
20260505030513 61 162 3.0 12.0 0.00 0.00 0.00 47 1006.1
20260505030012 61 318 2.0 9.0 0.00 0.00 0.00 47 1006.1
20260505025611 62 339 2.0 11.0 0.00 0.00 0.00 47 1006.1
20260505025011 62 249 3.0 11.0 0.00 0.00 0.00 47 1006.1
20260505024510 62 68 3.0 9.0 0.00 0.00 0.00 46 1006.1
20260505024009 62 289 3.0 9.0 0.00 0.00 0.00 46 1006.2
20260505023510 62 311 3.0 10.0 0.00 0.00 0.00 45 1006.3
20260505023014 62 73 3.0 10.0 0.00 0.00 0.00 46 1006.3
20260505022510 62 306 4.0 9.0 0.00 0.00 0.00 46 1006.3
20260505022008 62 284 3.0 9.0 0.00 0.00 0.00 45 1006.4
20260505021508 62 308 1.0 8.0 0.00 0.00 0.00 45 1006.3
20260505021012 62 289 2.0 8.0 0.00 0.00 0.00 45 1006.4
20260505020509 62 277 2.0 9.0 0.00 0.00 0.00 45 1006.5
20260505020008 62 166 2.0 9.0 0.00 0.00 0.00 45 1006.5
20260505015508 62 292 1.0 7.0 0.00 0.00 0.00 45 1006.5
20260505015007 62 309 2.0 8.0 0.00 0.00 0.00 45 1006.5
20260505014506 62 302 3.0 8.0 0.00 0.00 0.00 45 1006.5
20260505014006 62 273 1.0 7.0 0.00 0.00 0.00 45 1006.6
20260505013507 62 305 2.0 8.0 0.00 0.00 0.00 45 1006.5
20260505013007 62 248 3.0 8.0 0.00 0.00 0.00 44 1006.5
20260505012508 62 296 1.0 7.0 0.00 0.00 0.00 45 1006.6
20260505012007 62 264 2.0 9.0 0.00 0.00 0.00 44 1006.6
20260505011506 62 301 1.0 6.0 0.00 0.00 0.00 45 1006.6
20260505011008 63 306 2.0 6.0 0.00 0.00 0.00 44 1006.6
20260505010506 63 283 1.0 6.0 0.00 0.00 0.00 44 1006.5
20260505010015 63 259 2.0 6.0 0.00 0.00 0.00 44 1006.4
20260505005506 63 325 1.0 7.0 0.00 0.00 0.00 44 1006.3
20260505005006 63 235 1.0 12.0 0.00 0.00 0.00 44 1006.2
20260505004506 63 293 3.0 12.0 0.00 0.00 0.00 44 1006.2
20260505004009 63 256 2.0 7.0 0.00 0.00 0.00 44 1006.1
20260505003514 63 298 3.0 7.0 0.00 0.00 0.00 43 1006.2
20260505003018 63 335 2.0 8.0 0.00 0.00 0.00 44 1006.1
20260505002509 63 315 0.0 8.0 0.00 0.00 0.00 44 1006.2
20260505002010 63 296 1.0 8.0 0.00 0.00 0.00 43 1006.1
20260505001523 63 115 2.0 9.0 0.00 0.00 0.00 43 1006.0
20260505001011 64 300 1.0 9.0 0.00 0.00 0.00 42 1006.1
20260505000518 64 39 1.0 6.0 0.00 0.00 0.00 42 1006.0
20260505000001 64 30 2.0 6.0 0.00 0.00 0.00 41 1006.0
20260504235515 64 33 1.0 8.0 0.00 0.00 0.00 41 1006.0
20260504235018 65 8 0.0 8.0 0.00 0.00 0.00 40 1005.9
20260504234511 65 143 0.0 6.0 0.00 0.00 0.00 40 1005.9
20260504234016 66 246 1.0 6.0 0.00 0.00 0.00 41 1005.9
20260504233509 66 53 1.0 6.0 0.00 0.00 0.00 41 1005.8
20260504233015 66 295 3.0 8.0 0.00 0.00 0.00 39 1005.8
20260504232508 66 221 2.0 8.0 0.00 0.00 0.00 40 1005.7
20260504232016 66 305 2.0 7.0 0.00 0.00 0.00 40 1005.7
20260504231508 67 266 5.0 8.0 0.00 0.00 0.00 40 1005.7
20260504231013 67 288 5.0 10.0 0.00 0.00 0.00 39 1005.6
20260504230525 67 316 4.0 10.0 0.00 0.00 0.00 39 1005.6
20260504230013 67 274 5.0 11.0 0.00 0.00 0.00 38 1005.5
20260504225525 67 253 3.0 22.0 0.00 0.00 0.00 39 1005.5
20260504225008 67 288 9.0 22.0 0.00 0.00 0.00 38 1005.5
20260504224522 68 274 3.0 11.0 0.00 0.00 0.00 40 1005.5
20260504224006 68 294 6.0 11.0 0.00 0.00 0.00 39 1005.5
20260504223516 67 268 5.0 12.0 0.00 0.00 0.00 38 1005.6
20260504223016 67 295 3.0 11.0 0.00 0.00 0.00 39 1005.6
20260504222507 68 300 4.0 13.0 0.00 0.00 0.00 39 1005.5
20260504222015 68 290 5.0 13.0 0.00 0.00 0.00 38 1005.4
20260504221539 68 294 5.0 13.0 0.00 0.00 0.00 40 1005.5
20260504221012 68 278 6.0 11.0 0.00 0.00 0.00 39 1005.4
20260504220526 68 297 5.0 13.0 0.00 0.00 0.00 38 1005.4
20260504220010 68 280 6.0 13.0 0.00 0.00 0.00 40 1005.4
20260504215522 68 274 8.0 15.0 0.00 0.00 0.00 38 1005.6
20260504215011 68 243 8.0 15.0 0.00 0.00 0.00 37 1005.5
20260504214521 68 281 8.0 18.0 0.00 0.00 0.00 38 1005.4
20260504214012 68 285 9.0 18.0 0.00 0.00 0.00 37 1005.5
20260504213524 68 294 8.0 18.0 0.00 0.00 0.00 40 1005.6
20260504213012 67 315 10.0 18.0 0.00 0.00 0.00 37 1005.6
20260504212523 67 287 8.0 16.0 0.00 0.00 0.00 39 1005.7
20260504212010 67 280 6.0 16.0 0.00 0.00 0.00 39 1005.8
20260504211525 67 283 9.0 16.0 0.00 0.00 0.00 40 1005.7
20260504211011 67 312 6.0 17.0 0.00 0.00 0.00 41 1005.7
20260504210524 68 277 7.0 18.0 0.00 0.00 0.00 41 1005.8
20260504210012 68 304 8.0 17.0 0.00 0.00 0.00 39 1005.8
20260504205524 67 300 9.0 15.0 0.00 0.00 0.00 40 1005.8
20260504205009 67 300 8.0 16.0 0.00 0.00 0.00 43 1005.8
20260504204528 67 298 9.0 16.0 0.00 0.00 0.00 40 1006.0
20260504204007 67 307 7.0 19.0 0.00 0.00 0.00 40 1006.1
20260504203522 66 276 11.0 19.0 0.00 0.00 0.00 45 1006.0
20260504203003 66 243 7.0 15.0 0.00 0.00 0.00 41 1006.1
20260504202516 66 269 9.0 17.0 0.00 0.00 0.00 43 1006.2
20260504202012 65 284 10.0 21.0 0.00 0.00 0.00 42 1006.1
20260504201524 65 293 9.0 21.0 0.00 0.00 0.00 43 1006.1
20260504201008 65 301 9.0 17.0 0.00 0.00 0.00 43 1006.2
20260504200521 65 283 7.0 17.0 0.00 0.00 0.00 44 1006.3
20260504200021 64 294 4.0 15.0 0.00 0.00 0.00 44 1006.3
20260504195511 64 283 5.0 15.0 0.00 0.00 0.00 45 1006.4
20260504195017 65 274 6.0 16.0 0.00 0.00 0.00 42 1006.4
20260504194530 65 291 8.0 19.0 0.00 0.00 0.00 43 1006.5
20260504194009 64 291 12.0 19.0 0.00 0.00 0.00 44 1006.6
20260504193517 65 291 9.0 15.0 0.00 0.00 0.00 43 1006.7
20260504193021 65 290 8.0 21.0 0.00 0.00 0.00 44 1006.8
20260504192510 65 288 12.0 21.0 0.00 0.00 0.00 45 1006.7
20260504192016 64 276 8.0 18.0 0.00 0.00 0.00 44 1006.7
20260504191504 64 308 9.0 18.0 0.00 0.00 0.00 44 1006.7
20260504191010 64 290 9.0 16.0 0.00 0.00 0.00 45 1006.9
20260504190520 64 298 10.0 0.0 0.00 0.00 0.00 45 1006.8
20260504190011 64 290 12.0 19.0 0.00 0.00 0.00 46 1007.0
20260504185521 64 301 9.0 18.0 0.00 0.00 0.00 45 1006.9
20260504185008 64 288 10.0 18.0 0.00 0.00 0.00 44 1007.0
20260504184519 64 289 9.0 15.0 0.00 0.00 0.00 45 1006.9
20260504184020 64 295 8.0 19.0 0.00 0.00 0.00 43 1006.9
20260504183511 64 276 10.0 19.0 0.00 0.00 0.00 45 1007.1
20260504183017 64 277 11.0 20.0 0.00 0.00 0.00 47 1007.1
20260504182529 64 271 12.0 20.0 0.00 0.00 0.00 44 1007.1
20260504182017 64 293 11.0 20.0 0.00 0.00 0.00 46 1007.1
20260504181525 63 288 8.0 19.0 0.00 0.00 0.00 45 1007.0
20260504181009 63 283 10.0 19.0 0.00 0.00 0.00 47 1007.2
20260504180518 63 291 11.0 19.0 0.00 0.00 0.00 46 1007.2
20260504180021 63 277 9.0 17.0 0.00 0.00 0.00 48 1007.2
20260504175511 62 285 10.0 23.0 0.00 0.00 0.00 46 1007.1
20260504175117 63 301 11.0 27.0 0.00 0.00 0.00 46 1007.2
20260504174527 63 280 15.0 26.0 0.00 0.00 0.00 48 1007.3
20260504174011 63 255 10.0 19.0 0.00 0.00 0.00 52 1007.2
20260504173521 62 267 7.0 16.0 0.00 0.00 0.00 47 1007.2
20260504173007 62 293 8.0 17.0 0.00 0.00 0.00 51 1007.3
20260504172518 62 298 9.0 27.0 0.00 0.00 0.00 48 1007.6
20260504172022 62 301 15.0 27.0 0.00 0.00 0.00 47 1007.5
20260504171513 62 293 12.0 21.0 0.00 0.00 0.00 48 1007.5
20260504171015 62 276 9.0 22.0 0.00 0.00 0.00 47 1007.4
20260504170524 62 290 11.0 22.0 0.00 0.00 0.00 50 1007.6
20260504151019 56 289 13.0 19.0 0.00 0.00 0.00 50 1008.7
20260504150512 57 291 9.0 21.0 0.00 0.00 0.00 50 1008.7
20260504141018 55 262 11.0 24.0 0.00 0.00 0.00 53 1009.0
20260504140524 54 274 11.0 22.0 0.00 0.00 0.00 52 1009.0
20260504130526 52 301 10.0 22.0 0.00 0.00 0.00 52 1009.5
20260504110534 48 310 9.0 17.0 0.00 0.00 0.00 56 1009.7
20260504100528 48 287 5.0 18.0 0.00 0.00 0.00 56 1009.5
20260504081513 48 277 14.0 20.0 0.00 0.00 0.00 55 1009.8
20260504081020 48 298 13.0 20.0 0.00 0.00 0.00 56 1009.8
20260504080511 48 277 10.0 22.0 0.00 0.00 0.00 56 1009.8